Regional Weather Roundup
Issued by NWS

Home | Current Version | Previous Version | Graphics & Text | Print | Product List | Glossary On
Versions: 1 2 3 4 5 6 7 8 9 10 11 12 13 14 15 16 17 18 19 20 21 22 23 24 25 26 27 28 29 30 31 32 33 34 35 36 37 38 39 40 41 42 43 44 45 46 47 48 49 50
000
ASUS43 KOAX 020002
RWRNE

WEATHER ROUNDUP FOR NEBRASKA
NATIONAL WEATHER SERVICE OMAHA NE
700 PM CDT WED APR 01 2015

NOTES: SATELLITE DATA IS BEING USED TO AUGMENT CLOUD COVER ABOVE
       12000 FEET.
       "FAIR" INDICATES FEW OR NO CLOUDS BELOW 12,000 FEET WITH NO
       SIGNIFICANT WEATHER AND/OR OBSTRUCTIONS TO VISIBILITY.

  * THESE STATIONS DO NOT REPORT WEATHER SUCH AS RAIN...SNOW OR FOG.

NEZ001>004-019>022-054>056-020100-
NEBRASKA PANHANDLE

CITY           SKY/WX    TMP DP  RH WIND       PRES   REMARKS
SCOTTSBLUFF    PTSUNNY   53  30  41 N28G35    29.79R
6HR MIN TEMP:  53; 6HR MAX TEMP:  74; 6HR PCP: TRACE;

ALLIANCE       CLOUDY    53  31  42 N23G32    29.76R
6HR MIN TEMP:  53; 6HR MAX TEMP:  70;

CHADRON        PTSUNNY   55  31  39 NW15G25   29.80R
6HR MIN TEMP:  55; 6HR MAX TEMP:  67;

SIDNEY         CLOUDY    59  30  33 N16       29.77R
6HR MIN TEMP:  59; 6HR MAX TEMP:  75; 6HR PCP: TRACE;

$$

NEZ057>060-069>072-079>082-020100-
SOUTHWEST NEBRASKA

CITY           SKY/WX    TMP DP  RH WIND       PRES   REMARKS
NORTH PLATTE   MOSUNNY   67  36  31 N24G31    29.65R
6HR MIN TEMP:  67; 6HR MAX TEMP:  81;

IMPERIAL       CLOUDY    71  30  21 N17       29.65R
6HR MIN TEMP:  71; 6HR MAX TEMP:  80;

LEXINGTON      PTSUNNY   73  37  27 N21G29    29.57S
MCCOOK         MOSUNNY   78  30  17 N21G31    29.54S
6HR MIN TEMP:  78; 6HR MAX TEMP:  87;

$$

NEZ005>010-023>029-035>040-094-020100-
NORTH CENTRAL NEBRASKA

CITY           SKY/WX    TMP DP  RH WIND       PRES   REMARKS
VALENTINE      PTSUNNY   63  29  27 N14G28    29.72R
6HR MIN TEMP:  61; 6HR MAX TEMP:  68;

AINSWORTH      CLOUDY    63  32  31 N17G23    29.70R
BROKEN BOW     PTSUNNY   67  39  35 N29G37    29.61R
6HR MIN TEMP:  67; 6HR MAX TEMP:  83;

ORD            CLOUDY    67  38  34 N24G36    29.56F
6HR MIN TEMP:  67; 6HR MAX TEMP:  85;

$$

NEZ041-046>049-061>064-073>077-083>087-020100-
SOUTH CENTRAL NEBRASKA

CITY           SKY/WX    TMP DP  RH WIND       PRES   REMARKS
GRAND ISLAND   PTSUNNY   80  44  27 S16G24    29.51F THUNDER
6HR MIN TEMP:  80; 6HR MAX TEMP:  87;

HASTINGS       PTSUNNY   80  46  30 S17G25    29.50F
6HR MIN TEMP:  79; 6HR MAX TEMP:  85;

KEARNEY *      CLOUDY    77  37  24 N22G28    29.53R
YORK           PTCLDY    81  48  32 S23G29    29.52F
$$

NEZ011>018-030>034-042>045-020100-
NORTHEAST NEBRASKA

CITY           SKY/WX    TMP DP  RH WIND       PRES   REMARKS
NORFOLK        TSTM      63  49  60 NW14      29.58R
6HR MIN TEMP:  61; 6HR MAX TEMP:  85; 6HR PCP:  0.30;

BLAIR          CLEAR     81  45  28 S26G39    29.53F
COLUMBUS *     PTCLDY    79  45  29 S18G25    29.50F
FREMONT        PTCLDY    82  43  24 S21G31    29.51F
TEKAMAH        PTCLDY    82  46  28 S26G36    29.49F
6HR MIN TEMP:  82; 6HR MAX TEMP:  89;

$$

NEZ050>053-065>068-078-088>093-020100-
SOUTHEAST NEBRASKA

CITY           SKY/WX    TMP DP  RH WIND       PRES   REMARKS
LINCOLN        CLEAR     81  46  29 S26G33    29.54R
6HR MIN TEMP:  79; 6HR MAX TEMP:  85;

OMAHA EPPLEY   MOCLDY    81  48  31 S28G36    29.54F
6HR MIN TEMP:  79; 6HR MAX TEMP:  85;

FALLS CITY     CLEAR     77  51  40 S23G31    29.62S
6HR MIN TEMP:  77; 6HR MAX TEMP:  83;

$$

NEZ044-045-051>053-067-020100-
OMAHA AREA

CITY           SKY/WX    TMP DP  RH WIND       PRES   REMARKS
OMAHA EPPLEY   MOCLDY    81  48  31 S28G36    29.54F
6HR MIN TEMP:  79; 6HR MAX TEMP:  85;

BLAIR          CLEAR     81  45  28 S26G39    29.53F
FREMONT        PTCLDY    82  43  24 S21G31    29.51F
OFFUTT AFB     CLEAR     80  48  33 S22G29    29.56S
$$


USA.gov is the U.S. government's official web portal to all federal, state and local government web resources and services.